This is the latest recevied weather packets stored in our database for station/object KI8L. If no packets are shown the sender has not sent any weather packets the latest 10 day(s).
| Time | Temp. | Humidity | Pressure | Rain* | Wind** | Luminosity | Snow |
|---|---|---|---|---|---|---|---|
| 1777405886 | 21.67° C | 70% | 1014.8 hPa | 0 mm | - | 158 W/m² | - |
| 1777405582 | 21.11° C | 70% | 1014.7 hPa | 0 mm | - | 639 W/m² | - |
| 1777405280 | 21.67° C | 68% | 1014.6 hPa | 0 mm | - | 655 W/m² | - |
| 1777404980 | 21.11° C | 69% | 1014.7 hPa | 0 mm | - | 665 W/m² | - |
| 1777404674 | 21.11° C | 69% | 1014.7 hPa | 0 mm | - | 612 W/m² | - |
| 1777404371 | 21.11° C | 70% | 1014.9 hPa | 0 mm | - | 638 W/m² | - |
| 1777404068 | 21.11° C | 71% | 1014.9 hPa | 0 mm | - | 670 W/m² | - |
| 1777403764 | 20.56° C | 70% | 1015 hPa | 0 mm | - | 285 W/m² | - |
| 1777403462 | 21.11° C | 70% | 1015 hPa | 0 mm | - | 703 W/m² | - |
| 1777403162 | 20.56° C | 71% | 1015 hPa | 0 mm | - | 678 W/m² | - |
| 1777402857 | 20.56° C | 71% | 1015 hPa | 0 mm | - | 383 W/m² | - |
| 1777402554 | 20.56° C | 72% | 1014.9 hPa | 0 mm | - | 711 W/m² | - |
| 1777402252 | 20.56° C | 74% | 1014.8 hPa | 0 mm | - | 239 W/m² | - |
| 1777401947 | 21.11° C | 73% | 1014.9 hPa | 0 mm | - | 692 W/m² | - |
| 1777401645 | 20.56° C | 73% | 1014.9 hPa | 0 mm | - | 608 W/m² | - |
| 1777401343 | 21.11° C | 75% | 1015 hPa | 0 mm | - | 175 W/m² | - |
| 1777401039 | 21.11° C | 73% | 1014.9 hPa | 0 mm | - | 730 W/m² | - |
| 1777400734 | 20.56° C | 73% | 1014.8 hPa | 0 mm | - | 774 W/m² | - |
| 1777400432 | 21.11° C | 75% | 1014.8 hPa | 0 mm | - | 139 W/m² | - |
| 1777400132 | 21.67° C | 75% | 1014.7 hPa | 0 mm | - | 206 W/m² | - |
| 1777399830 | 21.11° C | 74% | 1014.7 hPa | 0 mm | - | 748 W/m² | - |
| 1777399526 | 21.11° C | 78% | 1014.7 hPa | 0 mm | - | 722 W/m² | - |
| 1777399224 | 21.11° C | 77% | 1014.7 hPa | 0 mm | - | 815 W/m² | - |
| 1777398921 | 21.11° C | 75% | 1014.8 hPa | 0 mm | - | 748 W/m² | - |
| 1777398618 | 21.67° C | 77% | 1014.4 hPa | 0 mm | - | 213 W/m² | - |
* Rain latest hour (hover to see other rain measurements)
** Current wind speed in m/s (hover to see current wind gust speed)